Location: Ford County Road and Bridge Department
(37.7686°N, 99.9762°W)
Time: 02:56:40
(UTC+00:00)

Cosmos 2298 Rocket - Pass Details

Date: 18 January 2020
Orbit: 775 x 784 km, 74.0° (Epoch: 19 February)

Event Time Altitude Azimuth Distance (km) Brightness Sun altitude
Rises 00:31:07 0° 204° (SSW) 3,239 8.0 -8.9°
Reaches altitude 10° 00:33:30 10° 207° (SSW) 2,316 7.2 -9.4°
Maximum altitude 00:38:44 66° 290° (WNW) 848 4.5 -10.4°
Drops below altitude 10° 00:44:00 10° 12° (NNE) 2,336 6.2 -11.4°
Sets 00:46:26 0° 16° (NNE) 3,269 6.9 -11.8°
